Regional Weather Roundup
Issued by NWS Goodland, KS

Home | Current Version | Previous Version | Graphics & Text | Print | Product List | Glossary On
Versions: 1 2 3 4 5 6 7 8 9 10 11 12 13 14 15 16 17 18 19 20 21 22 23 24 25 26 27 28 29 30 31 32 33 34 35 36 37 38 39 40 41 42 43 44 45 46 47 48 49 50
000
ASUS43 KGLD 300859
RWRGLD

GOODLAND FORECAST AREA HOURLY WEATHER ROUNDUP
NATIONAL WEATHER SERVICE GOODLAND KS
300 AM MDT THU JUL 30 2015

...OFFICIAL OBSERVATIONS...

CITY           SKY/WX    TMP DP  RH WIND       PRES   REMARKS
GOODLAND KS    PTCLDY    62  57  83 S8        30.28F
HILL CITY KS   CLOUDY    67  62  84 CALM      30.24F
IMPERIAL NEB   CLEAR     59  52  77 S5        30.27R
MCCOOK NEB     CLEAR     60  53  77 MISG      30.25S
AKRON CO       CLEAR     60  55  83 S13       30.30F
BURLINGTON CO  PTCLDY    60  57  89 S9        30.31S
LIMON CO       PTCLDY    55  54  96 SE6       30.36S
$$

...UNOFFICIAL OBSERVATIONS...

CITY           SKY/WX    TMP DP  RH WIND       PRES   REMARKS
COLBY KS       CLEAR     63  57  82 SE6       30.27S
NORTON KS      CLEAR     57  52  82 CALM      30.24S
SHARON SPRINGS   N/A     62  60  92 CALM        N/A
KIT CARSON CO    N/A     62  58  87 MISG        N/A
$$



USA.gov is the U.S. government's official web portal to all federal, state and local government web resources and services.